Date,TemperatureHighF,TemperatureAvgF,TemperatureLowF,DewpointHighF,DewpointAvgF,DewpointLowF,HumidityHigh,HumidityAvg,HumidityLow,PressureMaxIn,PressureMinIn,WindSpeedMaxMPH,WindSpeedAvgMPH,GustSpeedMaxMPH,PrecipitationSumIn
2013-1-1,36.0,31.2,20.3,21.4,12.6,1.2,58,46,34,30.34,30.15,21,7,21,0.00
2013-1-2,33.1,18.7,7.5,11.2,2.2,-5.1,65,49,36,30.52,30.33,14,3,14,0.00
2013-1-3,33.1,11.8,-2.7,1.9,-7.5,-15.7,57,43,22,30.58,30.43,8,2,8,0.00
2013-1-4,40.6,27.4,13.1,21.8,13.3,3.4,75,56,44,30.41,30.25,17,4,17,0.00
2013-1-5,45.9,33.8,20.1,20.6,16.0,10.3,70,49,30,30.68,30.29,16,5,16,0.00
2013-1-6,47.7,31.5,20.7,27.9,20.5,12.4,80,65,41,30.64,30.35,14,2,14,0.01
2013-1-7,45.7,31.8,18.1,24.3,18.6,8.7,80,60,33,30.80,30.41,9,2,9,0.00
2013-1-8,50.9,30.8,12.2,26.5,17.9,4.3,82,60,36,30.78,30.69,17,4,17,0.00
2013-1-9,42.4,31.3,18.7,32.5,22.5,11.5,79,70,54,30.80,30.44,16,2,16,0.00
2013-1-10,48.2,40.0,27.5,27.3,20.3,16.5,67,46,32,30.94,30.52,18,6,18,0.00
2013-1-11,38.5,30.9,20.7,33.0,23.1,14.6,87,73,56,30.96,30.59,4,1,4,0.17
2013-1-12,42.8,38.1,35.1,39.9,35.2,31.9,93,89,87,30.60,30.52,3,1,3,0.04
2013-1-13,47.1,39.8,35.4,45.0,37.1,32.4,93,90,88,30.57,30.45,3,1,3,0.01
2013-1-14,56.5,48.0,37.9,49.7,39.4,23.9,95,75,35,30.67,30.29,17,4,17,0.01
2013-1-15,40.3,34.7,26.8,27.1,21.0,18.2,78,58,45,30.75,30.64,8,2,8,0.00
2013-1-16,33.8,31.6,29.5,29.1,26.5,22.9,85,81,71,30.66,30.25,3,0,3,0.00
2013-1-17,41.9,33.8,27.3,31.1,24.5,13.2,89,70,48,30.51,30.27,9,2,9,0.18
2013-1-18,28.6,21.3,15.1,6.8,-4.4,-13.6,54,33,21,30.85,30.45,14,5,14,0.00
2013-1-19,46.9,35.4,23.5,28.9,16.6,1.7,70,46,37,30.78,30.28,23,6,23,0.00
2013-1-20,51.4,40.8,28.4,28.0,21.3,2.5,62,47,21,30.35,29.99,27,8,27,0.00
2013-1-21,28.9,23.1,16.3,15.3,4.0,-2.2,73,45,28,30.50,30.29,14,2,14,0.00
2013-1-22,26.2,18.8,14.0,11.7,-1.8,-14.0,72,44,23,30.46,30.18,17,4,17,0.00
2013-1-23,16.9,9.7,5.0,-10.0,-14.8,-20.7,40,32,24,30.57,30.49,17,6,17,0.00
2013-1-24,21.9,7.8,-4.5,-8.6,-15.3,-20.5,54,35,22,30.64,30.51,16,5,16,0.00
2013-1-25,25.0,13.9,3.6,5.8,-11.6,-20.9,65,32,23,30.75,30.46,6,2,6,0.00
2013-1-26,29.5,14.8,3.0,4.1,-5.2,-12.3,65,43,23,30.68,30.42,16,3,16,0.00
2013-1-27,36.9,18.5,4.6,1.2,-5.7,-11.4,57,35,21,30.88,30.68,12,3,12,0.00
2013-1-28,30.0,20.9,9.7,21.7,7.3,-5.3,77,56,30,30.88,30.45,11,1,11,0.00
2013-1-29,37.8,31.3,26.2,29.9,25.1,21.2,83,78,66,30.60,30.41,4,1,4,0.12
2013-1-30,59.2,46.5,33.3,54.2,43.5,29.7,95,89,83,30.53,29.96,21,4,21,0.02
2013-1-31,61.2,49.0,34.3,57.3,36.1,5.8,91,65,28,29.95,29.40,26,10,26,0.77